Вернуться в каталог

STARLINK-36298

АктивенСвязьVLEO
NORAD 68517·PAYLOAD·🇺🇸 United States

Запущен Mar 30, 2026 с Cape Canaveral Space Force Station

Loading…

Ближайшие Пролёты (ближайшие 24 часа)

TLE

СвежийSource: CelesTrak SupGP

Эпоха: Sep 15, 2026, 03:09 UTC

1 68517C 26068K   26258.13173611  .00057704  00000+0  17042-2 0  2581
2 68517  53.1580 324.9202 0001156  90.5724 201.2768 15.34373720    15

Отслеживайте STARLINK-36298 в реальном времени с AllMySat

Download on the App Store